Retour au catalogue

COSMOS 2251 DEB

ActifLEO
NORAD 35062·DEBRIS·🇷🇺 Russia

Lancé Jun 16, 1993 depuis Plesetsk Cosmodrome

Loading…

Prochains Passages (prochaines 24 heures)

TLE

VieillissantSource: Space-Track

Époque: Sep 12, 2026, 12:04 UTC

1 35062U 93036AHR 26255.50338834  .00002017  00000-0  80259-3 0  9998
2 35062  74.0776 321.3688 0127288 255.5522 103.1473 14.24957842893964

Suivez COSMOS 2251 DEB en temps réel avec AllMySat

Download on the App Store